FDX135 KLAX-EDDF

Flight info

Callsign FDX135
Flight time N/A
Altitude 31000
Route ORCKA5 LAS DCT BAWER DCT LARVE DCT EKR DCT BFF DCT KD78A DCT RWF/N0481F330 DCT GEP DCT KP09K DCT CMX DCT HENDY DCT YWK/N0488F350 DCT HOIST/M084F360 DCT 57N050W 58N040W 58N030W 57N020W DCT PIKIL DCT SOVED/N0485F370 DCT LUTOV DCT BELOX L603 DOLAS DCT NAVPI DCT NOLRU DCT DIXAT DIXAT1D
Aircraft MD11/H-SDE1E2E3FGHIJ2J3J4J5M1RWXY/LB1D1

Departure

Time 2026-04-20 03:35
Airport Los Angeles International Airport (KLAX)

Arrival

Time N/A
Airport Frankfurt Main Airport (EDDF)
Time Latitude Longitude Altitude Speed Heading
2026-04-20 02:55 33.93414 -118.38705 99 ft 0 kts 174°
2026-04-20 03:14 33.93433 -118.38707 100 ft 3 kts 174°
2026-04-20 03:15 33.93445 -118.38709 99 ft 2 kts 184°
2026-04-20 03:17 33.93414 -118.38705 100 ft 0 kts 174°
2026-04-20 03:26 33.93428 -118.38706 100 ft 3 kts 174°
2026-04-20 03:27 33.93442 -118.38708 100 ft 0 kts 180°
2026-04-20 03:27 33.93453 -118.38708 100 ft 3 kts 180°
2026-04-20 03:27 33.93470 -118.38708 99 ft 0 kts 180°
2026-04-20 03:29 33.93469 -118.38709 99 ft 1 kts 184°
2026-04-20 03:29 33.93461 -118.38716 100 ft 2 kts 218°
2026-04-20 03:29 33.93458 -118.38732 100 ft 1 kts 257°
2026-04-20 03:30 33.93457 -118.38741 100 ft 1 kts 266°
2026-04-20 03:30 33.93467 -118.38769 102 ft 5 kts 307°
2026-04-20 03:30 33.93510 -118.38788 103 ft 8 kts 352°
2026-04-20 03:30 33.93559 -118.38754 102 ft 8 kts 63°
2026-04-20 03:31 33.93564 -118.38726 103 ft 0 kts 80°
2026-04-20 03:31 33.93565 -118.38720 103 ft 3 kts 80°
2026-04-20 03:32 33.93573 -118.38659 102 ft 11 kts 82°
2026-04-20 03:32 33.93579 -118.38571 104 ft 10 kts 88°
2026-04-20 03:32 33.93585 -118.38521 102 ft 5 kts 80°
2026-04-20 03:32 33.93590 -118.38481 101 ft 6 kts 81°
2026-04-20 03:33 33.93599 -118.38414 102 ft 11 kts 82°
2026-04-20 03:33 33.93619 -118.38322 103 ft 11 kts 60°
2026-04-20 03:33 33.93667 -118.38284 103 ft 7 kts
2026-04-20 03:33 33.93705 -118.38293 106 ft 5 kts 332°
2026-04-20 03:34 33.93727 -118.38338 104 ft 9 kts 277°
2026-04-20 03:34 33.93698 -118.38645 102 ft 73 kts 264°
2026-04-20 03:34 33.93611 -118.39524 104 ft 133 kts 263°
2026-04-20 03:34 33.93476 -118.40799 102 ft 171 kts 263°
2026-04-20 03:35 33.93335 -118.42285 226 ft 182 kts 264°
2026-04-20 03:35 33.93185 -118.43830 546 ft 190 kts 265°
2026-04-20 03:35 33.93024 -118.45442 849 ft 196 kts 265°
2026-04-20 03:35 33.92875 -118.47096 1188 ft 200 kts 266°
2026-04-20 03:36 33.92665 -118.48752 1671 ft 199 kts 262°
2026-04-20 03:36 33.92410 -118.50405 2143 ft 202 kts 262°
2026-04-20 03:36 33.92149 -118.52072 2605 ft 203 kts 262°
2026-04-20 03:36 33.91883 -118.53754 3026 ft 208 kts 262°
2026-04-20 03:37 33.91699 -118.54913 3116 ft 218 kts 262°
2026-04-20 03:37 33.91410 -118.56749 3249 ft 230 kts 262°
2026-04-20 03:37 33.91103 -118.58734 3385 ft 252 kts 262°
2026-04-20 03:37 33.90775 -118.60892 3525 ft 273 kts 262°
2026-04-20 03:38 33.90439 -118.63095 4298 ft 265 kts 262°
2026-04-20 03:38 33.90100 -118.65267 4896 ft 268 kts 262°
2026-04-20 03:38 33.89646 -118.67477 5298 ft 276 kts 248°
2026-04-20 03:38 33.88513 -118.69360 5829 ft 285 kts 222°
2026-04-20 03:39 33.86760 -118.70498 6328 ft 293 kts 195°
2026-04-20 03:39 33.84721 -118.70634 6814 ft 298 kts 169°
2026-04-20 03:39 33.82800 -118.69719 7302 ft 301 kts 143°
2026-04-20 03:39 33.81364 -118.67918 7781 ft 300 kts 117°
2026-04-20 03:40 33.80687 -118.65575 8262 ft 298 kts 92°
2026-04-20 03:40 33.80888 -118.63126 8707 ft 296 kts 67°
2026-04-20 03:40 33.81885 -118.60984 9131 ft 295 kts 49°
2026-04-20 03:40 33.83201 -118.59067 9579 ft 299 kts 46°
2026-04-20 03:41 33.84576 -118.57156 10065 ft 305 kts 45°
2026-04-20 03:41 33.85977 -118.55217 10524 ft 310 kts 45°
2026-04-20 03:41 33.87402 -118.53244 10969 ft 315 kts 45°
2026-04-20 03:41 33.88836 -118.51223 11423 ft 321 kts 48°
2026-04-20 03:42 33.90198 -118.49027 11639 ft 337 kts 53°
2026-04-20 03:42 33.91453 -118.46564 11768 ft 354 kts 58°
2026-04-20 03:42 33.92722 -118.43962 11881 ft 368 kts 54°
2026-04-20 03:42 33.94179 -118.41399 12341 ft 370 kts 52°
2026-04-20 03:43 33.95705 -118.38819 12488 ft 385 kts 52°
2026-04-20 03:43 33.97262 -118.36171 12926 ft 390 kts 53°
2026-04-20 03:43 33.98821 -118.33480 13392 ft 394 kts 53°
2026-04-20 03:43 34.00388 -118.30746 13826 ft 399 kts 54°
2026-04-20 03:44 34.01965 -118.27976 14287 ft 403 kts 54°
2026-04-20 03:44 34.03557 -118.25173 14728 ft 407 kts 54°
2026-04-20 03:44 34.05159 -118.22348 15165 ft 410 kts 55°
2026-04-20 03:44 34.06773 -118.19500 15614 ft 414 kts 55°
2026-04-20 03:45 34.08430 -118.16572 16061 ft 417 kts 56°
2026-04-20 03:45 34.10069 -118.13673 16507 ft 420 kts 56°
2026-04-20 03:45 34.11722 -118.10749 16941 ft 423 kts 57°
2026-04-20 03:45 34.13381 -118.07805 17401 ft 425 kts 57°
2026-04-20 03:46 34.15047 -118.04847 17853 ft 427 kts 57°
2026-04-20 03:46 34.16722 -118.01871 18304 ft 429 kts 58°
2026-04-20 03:46 34.18408 -117.98874 18644 ft 434 kts 57°
2026-04-20 03:46 34.20114 -117.95840 18966 ft 439 kts 56°
2026-04-20 03:47 34.21836 -117.92779 19361 ft 441 kts 56°
2026-04-20 03:47 34.23566 -117.89701 19726 ft 444 kts 57°
2026-04-20 03:47 34.25296 -117.86624 20269 ft 442 kts 58°
2026-04-20 03:47 34.27022 -117.83546 20672 ft 444 kts 58°
2026-04-20 03:48 34.28772 -117.80422 20833 ft 452 kts 56°
2026-04-20 03:48 34.30543 -117.77257 21113 ft 456 kts 57°
2026-04-20 03:48 34.32327 -117.74070 21416 ft 459 kts 57°
2026-04-20 03:48 34.34117 -117.70871 21827 ft 460 kts 56°
2026-04-20 03:49 34.35948 -117.67670 22090 ft 464 kts 54°
2026-04-20 03:49 34.37823 -117.64481 22361 ft 467 kts 55°
2026-04-20 03:49 34.39723 -117.61288 22769 ft 466 kts 56°
2026-04-20 03:49 34.41619 -117.58114 23227 ft 464 kts 57°
2026-04-20 03:50 34.43505 -117.54954 23742 ft 461 kts 58°
2026-04-20 03:50 34.45374 -117.51817 24214 ft 459 kts 58°
2026-04-20 03:50 34.47236 -117.48683 24681 ft 456 kts 58°
2026-04-20 03:50 34.49084 -117.45570 25147 ft 454 kts 58°
2026-04-20 03:51 34.50918 -117.42473 25590 ft 451 kts 58°
2026-04-20 03:51 34.52744 -117.39387 26011 ft 449 kts 58°
2026-04-20 03:51 34.54557 -117.36319 26405 ft 447 kts 58°
2026-04-20 03:51 34.56368 -117.33252 26801 ft 446 kts 58°
2026-04-20 03:52 34.58169 -117.30201 27150 ft 445 kts 57°
2026-04-20 03:52 34.59975 -117.27137 27385 ft 447 kts 57°
2026-04-20 03:52 34.61783 -117.24065 27654 ft 448 kts 57°
2026-04-20 03:52 34.63595 -117.20987 27936 ft 448 kts 57°
2026-04-20 03:53 34.65407 -117.17906 28138 ft 449 kts 57°
2026-04-20 03:53 34.67220 -117.14820 28414 ft 449 kts 57°
2026-04-20 03:53 34.69038 -117.11725 28634 ft 451 kts 57°
2026-04-20 03:53 34.70863 -117.08613 28770 ft 453 kts 57°
2026-04-20 03:54 34.72687 -117.05500 29129 ft 451 kts 56°
2026-04-20 03:54 34.74502 -117.02401 29435 ft 450 kts 56°
2026-04-20 03:54 34.76317 -116.99299 29700 ft 450 kts 55°
2026-04-20 03:54 34.78138 -116.96185 29900 ft 452 kts 55°
2026-04-20 03:55 34.79962 -116.93063 30044 ft 455 kts 55°
2026-04-20 03:55 34.81791 -116.89927 30319 ft 454 kts 54°
2026-04-20 03:55 34.83614 -116.86790 30567 ft 454 kts 54°
2026-04-20 03:55 34.85429 -116.83650 30840 ft 453 kts 53°
2026-04-20 03:56 34.87237 -116.80521 31097 ft 452 kts 53°
2026-04-20 03:56 34.89052 -116.77404 31317 ft 451 kts 52°
2026-04-20 03:56 34.91004 -116.74422 31534 ft 450 kts 49°
2026-04-20 03:56 34.93076 -116.71575 31736 ft 449 kts 47°
2026-04-20 03:57 34.95175 -116.68823 31925 ft 449 kts 46°
2026-04-20 03:57 34.97310 -116.66058 32135 ft 448 kts 46°
2026-04-20 03:57 34.99444 -116.63287 32317 ft 448 kts 46°
2026-04-20 03:57 35.01568 -116.60512 32495 ft 447 kts 46°
2026-04-20 03:58 35.03678 -116.57738 32681 ft 447 kts 46°
2026-04-20 03:58 35.05793 -116.54945 32739 ft 449 kts 46°
2026-04-20 03:58 35.10051 -116.49302 32748 ft 454 kts 47°
2026-04-20 03:59 35.14338 -116.43607 32747 ft 456 kts 47°
2026-04-20 03:59 35.18610 -116.37922 32745 ft 453 kts 47°
2026-04-20 04:00 35.22865 -116.32252 32745 ft 454 kts 47°
2026-04-20 04:00 35.27140 -116.26545 32747 ft 455 kts 47°
2026-04-20 04:01 35.31414 -116.20832 32749 ft 455 kts 47°
2026-04-20 04:01 35.35675 -116.15125 32747 ft 452 kts 47°
2026-04-20 04:02 35.39914 -116.09437 32747 ft 452 kts 47°
2026-04-20 04:02 35.44160 -116.03731 32747 ft 454 kts 47°
2026-04-20 04:03 35.48409 -115.97988 32747 ft 456 kts 47°
2026-04-20 04:03 35.52671 -115.92210 32748 ft 458 kts 47°
2026-04-20 04:04 35.56949 -115.86420 32747 ft 457 kts 47°
2026-04-20 04:04 35.61223 -115.80638 32747 ft 457 kts 47°
2026-04-20 04:05 35.65472 -115.74832 32747 ft 457 kts 47°
2026-04-20 04:05 35.69705 -115.68986 32748 ft 458 kts 47°
2026-04-20 04:06 35.73941 -115.63127 32746 ft 457 kts 47°
2026-04-20 04:06 35.78155 -115.57295 32746 ft 455 kts 47°
2026-04-20 04:07 35.82365 -115.51460 32747 ft 456 kts 47°
2026-04-20 04:07 35.86601 -115.45582 32748 ft 460 kts 47°
2026-04-20 04:08 35.90844 -115.39680 32747 ft 460 kts 48°
2026-04-20 04:08 35.95081 -115.33778 32746 ft 458 kts 48°
2026-04-20 04:09 35.99297 -115.27893 32747 ft 457 kts 48°
2026-04-20 04:09 36.03500 -115.22016 32747 ft 456 kts 48°
2026-04-20 04:10 36.07688 -115.16151 32746 ft 455 kts 48°
2026-04-20 04:10 36.11825 -115.10238 32747 ft 455 kts 51°
2026-04-20 04:11 36.15501 -115.03932 32747 ft 455 kts 54°
2026-04-20 04:11 36.19068 -114.97396 32748 ft 456 kts 54°
2026-04-20 04:12 36.22638 -114.90890 32747 ft 456 kts 54°
2026-04-20 04:12 36.26193 -114.84461 32745 ft 455 kts 54°
2026-04-20 04:13 36.29782 -114.77978 32747 ft 457 kts 54°
2026-04-20 04:13 36.33378 -114.71471 32747 ft 459 kts 54°
2026-04-20 04:14 36.36981 -114.64937 32746 ft 458 kts 54°
2026-04-20 04:14 36.40575 -114.58406 32746 ft 458 kts 54°
2026-04-20 04:15 36.44161 -114.51876 32745 ft 456 kts 54°
2026-04-20 04:15 36.47728 -114.45369 32747 ft 455 kts 54°
2026-04-20 04:16 36.51285 -114.38870 32745 ft 454 kts 54°
2026-04-20 04:16 36.54830 -114.32379 32746 ft 454 kts 54°
2026-04-20 04:17 36.58377 -114.25868 32750 ft 455 kts 54°
2026-04-20 04:17 36.61919 -114.19307 32747 ft 458 kts 54°
2026-04-20 04:18 36.65480 -114.12715 32748 ft 459 kts 55°
2026-04-20 04:18 36.68451 -114.07227 32746 ft 460 kts 54°
2026-04-20 04:19 36.72021 -114.00628 32746 ft 458 kts 54°
2026-04-20 04:19 36.75568 -113.94059 32746 ft 457 kts 55°
2026-04-20 04:20 36.79120 -113.87472 32746 ft 460 kts 57°
2026-04-20 04:20 36.82706 -113.80803 32748 ft 465 kts 56°
2026-04-20 04:21 36.86303 -113.74102 32748 ft 464 kts 57°
2026-04-20 04:21 36.89890 -113.67405 32745 ft 462 kts 55°
2026-04-20 04:22 36.93439 -113.60766 32747 ft 458 kts 55°
2026-04-20 04:22 36.96975 -113.54141 32747 ft 458 kts 55°
2026-04-20 04:23 37.00504 -113.47515 32746 ft 457 kts 55°
2026-04-20 04:23 37.04027 -113.40887 32746 ft 458 kts 55°
2026-04-20 04:24 37.07541 -113.34219 32748 ft 460 kts 55°
2026-04-20 04:24 37.11052 -113.27543 32747 ft 459 kts 55°
2026-04-20 04:25 37.14558 -113.20896 32745 ft 461 kts 56°
2026-04-20 04:25 37.18091 -113.14195 32747 ft 460 kts 55°
2026-04-20 04:26 37.21615 -113.07501 32748 ft 460 kts 55°
2026-04-20 04:26 37.25143 -113.00787 32744 ft 461 kts 57°
2026-04-20 04:27 37.28682 -112.94033 32748 ft 465 kts 57°
2026-04-20 04:27 37.32241 -112.87227 32748 ft 467 kts 57°
2026-04-20 04:28 37.35793 -112.80425 32745 ft 466 kts 58°
2026-04-20 04:28 37.39358 -112.73580 32747 ft 471 kts 59°
2026-04-20 04:29 37.42961 -112.66647 32747 ft 476 kts 59°
2026-04-20 04:29 37.46593 -112.59644 32747 ft 479 kts 59°
2026-04-20 04:30 37.50224 -112.52630 32745 ft 476 kts 59°
2026-04-20 04:30 37.53809 -112.45639 32745 ft 473 kts 59°
2026-04-20 04:31 37.57428 -112.38706 32745 ft 475 kts 57°
2026-04-20 04:31 37.61450 -112.32017 32746 ft 482 kts 55°
2026-04-20 04:32 37.65613 -112.25417 32747 ft 483 kts 54°
2026-04-20 04:32 37.69788 -112.18763 32746 ft 477 kts 54°
2026-04-20 04:33 37.73878 -112.12181 32747 ft 476 kts 54°
2026-04-20 04:33 37.77928 -112.05629 32746 ft 476 kts 54°
2026-04-20 04:34 37.81995 -111.99039 32746 ft 476 kts 54°
2026-04-20 04:34 37.86077 -111.92412 32748 ft 480 kts 55°
2026-04-20 04:35 37.90206 -111.85693 32745 ft 487 kts 56°